Location: McFarlands Corners
(41.4117°N, 81.3382°W)
Time: 20:44:16
(UTC+00:00)

SR - Pass Details

Date: 24 February 2026
Orbit: 572 x 848 km, 66.7° (Epoch: 8 March)

Event Time Altitude Azimuth Distance (km) Brightness Sun altitude
Rises 15:57:12 0° 339° (NNW) 3,086 ? 34.2°
Reaches altitude 10° 15:59:52 10° 353° (N) 2,215 ? 34.5°
Maximum altitude 16:04:03 25° 49° (NE) 1,495 ? 34.8°
Drops below altitude 10° 16:08:27 10° 104° (ESE) 2,351 ? 35.2°
Sets 16:11:22 0° 117° (ESE) 3,318 ? 35.5°
